Location: Easthampton
(42.2676°N, 72.6690°W)
Time: 14:55:35
(UTC+00:00)

AO-91 - Visible Passes

Search period start: 01 April 2023 00:00
Search period end: 11 April 2023 00:00
Orbit: 448 x 779 km, 97.6° (Epoch: 31 March)

Date Brightness Start Highest point End Pass type
(mag) Time Alt. Az. Time Alt. Az. Time Alt. Az.
01 Apr ? 03:40:05 10° N 03:41:13 17° N 03:41:13 17° N visible
02 Apr ? 02:19:47 10° NNE 02:19:50 10° NE 02:19:50 10° NE visible
02 Apr ? 03:55:36 10° N 03:56:53 17° NNW 03:56:53 17° NNW visible
03 Apr ? 02:34:48 10° NNE 02:35:27 13° NNE 02:35:27 13° NNE visible
03 Apr ? 04:11:11 10° NNW 04:12:30 16° NNW 04:12:30 16° NNW visible
04 Apr ? 02:49:54 10° NNE 02:51:03 17° NNE 02:51:03 17° NNE visible
04 Apr ? 04:26:53 10° NNW 04:28:04 14° NNW 04:28:04 14° NNW visible
05 Apr ? 03:05:05 10° NNE 03:06:36 20° NNE 03:06:36 20° NNE visible
05 Apr ? 04:42:48 10° NNW 04:43:38 12° NW 04:43:38 12° NW visible
06 Apr ? 03:20:19 10° N 03:22:07 22° N 03:22:07 22° N visible
07 Apr ? 03:35:36 10° N 03:37:37 23° N 03:37:37 23° N visible
08 Apr ? 02:15:18 10° NE 02:16:02 13° NE 02:16:02 13° NE visible
08 Apr ? 03:50:56 10° N 03:53:04 23° NNW 03:53:04 23° NNW visible
09 Apr ? 02:30:08 10° NNE 02:31:29 17° NE 02:31:29 17° NE visible
09 Apr ? 04:06:21 10° N 04:08:30 21° NNW 04:08:30 21° NNW visible
10 Apr ? 02:45:04 10° NNE 02:46:52 21° NNE 02:46:52 21° NNE visible
10 Apr ? 04:21:51 10° NNW 04:23:54 18° NW 04:23:54 18° NW visible
